Wetterdaten: Jahr 2020
Datum Temp Feuchte Luftdruck Regen Wind Richtung Sonnenschein UV Solar Windben
01.01.2020 1,4 C 82 % 1031,5 hPa 0,2 l/m 9,5 km/h S 4,75 h 0,6 UV-I 119 W/m 13,3 km/h
02.01.2020 -0,4 C 93 % 1024,9 hPa 0,0 l/m 2,8 km/h S 3,25 h 0,5 UV-I 96 W/m 4,8 km/h
03.01.2020 5,4 C 94 % 1019,0 hPa 11,8 l/m 12,3 km/h S 0,00 h 0,0 UV-I 22 W/m 19,7 km/h
04.01.2020 3,2 C 97 % 1027,1 hPa 6,6 l/m 7,0 km/h N 0,00 h 0,0 UV-I 12 W/m 19,7 km/h
05.01.2020 3,5 C 94 % 1032,9 hPa 0,4 l/m 0,0 km/h S-SW 0,00 h 0,0 UV-I 22 W/m 0,0 km/h
06.01.2020 1,8 C 90 % 1023,7 hPa 0,0 l/m 7,5 km/h S 0,17 h 0,0 UV-I 43 W/m 11,7 km/h
07.01.2020 4,5 C 95 % 1024,8 hPa 1,6 l/m 9,9 km/h N 0,17 h 0,5 UV-I 42 W/m 16,9 km/h
08.01.2020 8,1 C 97 % 1022,5 hPa 6,8 l/m 4,4 km/h S 0,00 h 0,0 UV-I 20 W/m 8,1 km/h
09.01.2020 9,3 C 96 % 1011,8 hPa 5,0 l/m 5,5 km/h S 0,00 h 0,0 UV-I 30 W/m 8,9 km/h
10.01.2020 5,7 C 94 % 1019,8 hPa 5,6 l/m 9,5 km/h S-SW 0,00 h 0,0 UV-I 31 W/m 22,1 km/h
11.01.2020 2,4 C 92 % 1028,7 hPa 0,0 l/m 7,5 km/h S 1,08 h 0,6 UV-I 77 W/m 11,7 km/h
12.01.2020 5,2 C 90 % 1020,7 hPa 0,8 l/m 14,9 km/h S 0,17 h 0,6 UV-I 50 W/m 25,4 km/h
13.01.2020 5,5 C 90 % 1015,1 hPa 0,2 l/m 17,6 km/h S 0,08 h 0,5 UV-I 62 W/m 25,4 km/h
14.01.2020 8,8 C 83 % 1008,0 hPa 0,6 l/m 21,0 km/h S 0,00 h 0,0 UV-I 26 W/m 29,8 km/h
15.01.2020 9,9 C 79 % 1014,2 hPa 2,0 l/m 18,5 km/h S 2,00 h 0,5 UV-I 92 W/m 31,0 km/h
16.01.2020 5,6 C 92 % 1024,6 hPa 0,0 l/m 7,1 km/h S-SO 5,25 h 0,6 UV-I 130 W/m 16,9 km/h
17.01.2020 6,9 C 87 % 1015,9 hPa 0,8 l/m 7,6 km/h S-SO 2,67 h 0,6 UV-I 106 W/m 14,1 km/h
18.01.2020 2,9 C 91 % 1024,1 hPa 1,4 l/m 4,6 km/h S-SW 0,00 h 0,5 UV-I 45 W/m 8,9 km/h
19.01.2020 2,0 C 97 % 1038,6 hPa 1,2 l/m 0,0 km/h NW 0,00 h 0,5 UV-I 36 W/m 0,0 km/h
20.01.2020 1,2 C 96 % 1045,8 hPa 0,2 l/m 0,0 km/h N 1,58 h 0,5 UV-I 81 W/m 0,0 km/h
21.01.2020 -1,3 C 90 % 1040,1 hPa 0,2 l/m 0,1 km/h N 5,33 h 0,7 UV-I 160 W/m 1,2 km/h
22.01.2020 0,9 C 97 % 1035,5 hPa 0,8 l/m 0,3 km/h N 0,00 h 0,5 UV-I 36 W/m 2,0 km/h
23.01.2020 0,0 C 94 % 1029,8 hPa 0,0 l/m 0,2 km/h S-SO 0,08 h 0,6 UV-I 70 W/m 1,6 km/h
24.01.2020 -1,3 C 96 % 1023,0 hPa 0,0 l/m 1,4 km/h S 0,33 h 0,6 UV-I 56 W/m 5,6 km/h
25.01.2020 -1,1 C 97 % 1021,4 hPa 0,0 l/m 0,0 km/h S 0,00 h 0,5 UV-I 44 W/m 0,0 km/h
26.01.2020 0,6 C 97 % 1016,4 hPa 0,6 l/m 8,4 km/h S 2,75 h 0,7 UV-I 109 W/m 11,7 km/h
27.01.2020 4,2 C 96 % 1004,6 hPa 4,2 l/m 13,5 km/h S 0,08 h 0,6 UV-I 49 W/m 18,9 km/h
28.01.2020 3,0 C 90 % 994,7 hPa 6,0 l/m 15,4 km/h S 0,33 h 0,5 UV-I 40 W/m 29,4 km/h
29.01.2020 3,0 C 92 % 1007,1 hPa 1,6 l/m 13,1 km/h N 0,17 h 0,6 UV-I 48 W/m 31,8 km/h
30.01.2020 7,2 C 90 % 1004,8 hPa 2,6 l/m 18,7 km/h S-SW 0,08 h 0,7 UV-I 81 W/m 29,4 km/h
31.01.2020 10,6 C 86 % 1007,0 hPa 1,4 l/m 14,5 km/h N 2,33 h 0,8 UV-I 101 W/m 25,8 km/h
01.02.2020 8,6 C 93 % 1003,3 hPa 14,8 l/m 13,3 km/h S-SW 0,00 h 0,5 UV-I 28 W/m 24,1 km/h
02.02.2020 7,4 C 91 % 1006,4 hPa 11,0 l/m 5,8 km/h N 0,00 h 0,5 UV-I 40 W/m 15,3 km/h
03.02.2020 7,4 C 90 % 1008,0 hPa 4,6 l/m 7,3 km/h N 0,08 h 0,6 UV-I 60 W/m 14,9 km/h
04.02.2020 2,8 C 95 % 1014,8 hPa 9,0 l/m 6,3 km/h N 0,17 h 0,5 UV-I 57 W/m 15,7 km/h
05.02.2020 2,2 C 88 % 1034,0 hPa 0,0 l/m 3,0 km/h N 4,58 h 0,8 UV-I 162 W/m 12,9 km/h
06.02.2020 3,2 C 91 % 1030,6 hPa 0,0 l/m 1,3 km/h N 0,00 h 0,6 UV-I 35 W/m 7,3 km/h
07.02.2020 2,7 C 86 % 1026,3 hPa 0,0 l/m 11,8 km/h S-SO 5,42 h 0,9 UV-I 178 W/m 16,1 km/h
08.02.2020 3,7 C 86 % 1020,6 hPa 0,0 l/m 12,5 km/h S-SO 1,50 h 0,6 UV-I 89 W/m 18,1 km/h
09.02.2020 9,1 C 80 % 999,9 hPa 0,2 l/m 32,4 km/h S 2,33 h 0,8 UV-I 113 W/m 51,1 km/h
10.02.2020 5,3 C 88 % 992,3 hPa 14,6 l/m 19,6 km/h S-SW 0,75 h 0,7 UV-I 63 W/m 37,0 km/h
11.02.2020 2,5 C 83 % 1002,7 hPa 1,0 l/m 17,9 km/h N 2,75 h 0,8 UV-I 146 W/m 37,0 km/h
12.02.2020 3,0 C 82 % 1012,5 hPa 1,2 l/m 7,2 km/h N 0,17 h 0,6 UV-I 72 W/m 21,0 km/h
13.02.2020 1,9 C 94 % 1003,3 hPa 6,2 l/m 10,5 km/h S 0,00 h 0,0 UV-I 30 W/m 18,9 km/h
14.02.2020 5,0 C 91 % 1020,1 hPa 1,2 l/m 3,1 km/h N 0,92 h 0,8 UV-I 102 W/m 11,2 km/h
15.02.2020 6,8 C 85 % 1015,8 hPa 0,0 l/m 20,3 km/h S 4,83 h 1,0 UV-I 186 W/m 29,4 km/h
16.02.2020 11,3 C 79 % 1003,7 hPa 7,8 l/m 25,3 km/h S 0,33 h 0,9 UV-I 77 W/m 42,2 km/h
17.02.2020 6,6 C 78 % 1012,4 hPa 4,8 l/m 14,9 km/h S-SW 1,33 h 0,9 UV-I 131 W/m 27,3 km/h
18.02.2020 4,9 C 85 % 1018,4 hPa 3,8 l/m 17,7 km/h S-SW 0,83 h 0,8 UV-I 104 W/m 27,8 km/h
Min-Datum 21.01.20 16.02.20 10.02.20 37 Tage 01.01.20 - - - - 01.01.20
Min-Zeit 07:55 18:40 00:55 - 00:00 - - - - 00:00
Minimum -4,3 C 57 % 985,7 hPa - 0,0 km/h - - - - 0,0 km/h
Max-Datum 16.02.20 05.01.20 20.01.20 01.02.20 09.02.20 - 07.02.20 14.02.20 14.02.20 09.02.20
Max-Zeit 16:15 08:50 10:50 11:10 23:20 - 16:05 13:05 13:05 18:50
Maximum 15,6 C 98 % 1047,5 hPa 14,8 l/m 51,6 km/h
S
- 5,33 h 1,5 UV-I 568 W/m 80,5 km/h
S
Durchschnitt 4,3 C 90 % 1018,0 hPa #142,8 l/m 9,9 km/h S #58:40 h 0,6 UV-I 74 W/m 17,8 km/h

Durchschnitt Minimum Temp.1,7 C
Durchschnitt Maximum Temp.6,7 C